| time (UTC) | temp C | wind direction | speed KPH | gust KPH | rain 1hr cm | rain 24hr cm | rain mn cm | humidity % | barometer mb |
| 20260906154546 | 36 | 49 | 1.6 | 8.0 | 0.00 | 0.00 | 0.00 | 59 | 1014.2 |
| 20260906153045 | 35 | 89 | 1.6 | 6.4 | 0.00 | 0.00 | 0.00 | 61 | 1014.1 |
| 20260906151547 | 35 | 138 | 3.2 | 8.0 | 0.00 | 0.00 | 0.00 | 62 | 1014.0 |
| 20260906150047 | 34 | 149 | 1.6 | 4.8 | 0.00 | 0.00 | 0.00 | 64 | 1013.9 |
| 20260906144603 | 32 | 352 | 0.0 | 4.8 | 0.00 | 0.00 | 0.00 | 69 | 1013.9 |
| 20260906143044 | 31 | 352 | 0.0 | 4.8 | 0.00 | 0.00 | 0.00 | 72 | 1013.9 |
| 20260906141543 | 30 | 0 | 0.0 | 0.0 | 0.00 | 0.00 | 0.00 | 77 | 1013.9 |
| 20260906140046 | 28 | 0 | 0.0 | 0.0 | 0.00 | 0.00 | 0.00 | 80 | 1014.0 |
| 20260906134545 | 28 | 0 | 0.0 | 0.0 | 0.00 | 0.00 | 0.00 | 82 | 1014.0 |
| 20260906133056 | 27 | 0 | 0.0 | 3.2 | 0.00 | 0.00 | 0.00 | 83 | 1013.9 |
| 20260906131542 | 26 | 0 | 0.0 | 0.0 | 0.00 | 0.00 | 0.00 | 86 | 1013.8 |
| 20260906130051 | 25 | 0 | 0.0 | 0.0 | 0.00 | 0.00 | 0.00 | 90 | 1013.8 |
| 20260906124543 | 24 | 0 | 0.0 | 0.0 | 0.00 | 0.00 | 0.00 | 94 | 1013.8 |
| 20260906123046 | 23 | 0 | 0.0 | 0.0 | 0.00 | 0.00 | 0.00 | 96 | 1013.6 |
| 20260906121544 | 23 | 0 | 0.0 | 0.0 | 0.00 | 0.00 | 0.00 | 96 | 1013.4 |
| 20260906120048 | 23 | 0 | 0.0 | 0.0 | 0.00 | 0.00 | 0.00 | 95 | 1013.2 |
| 20260906114552 | 23 | 0 | 0.0 | 1.6 | 0.00 | 0.00 | 0.00 | 95 | 1013.0 |
| 20260906113046 | 23 | 0 | 0.0 | 0.0 | 0.00 | 0.00 | 0.00 | 94 | 1013.1 |
| 20260906111544 | 23 | 0 | 0.0 | 0.0 | 0.00 | 0.00 | 0.00 | 94 | 1012.9 |
| 20260906110045 | 23 | 0 | 0.0 | 1.6 | 0.00 | 0.00 | 0.00 | 94 | 1012.8 |
| 20260906104557 | 23 | 0 | 0.0 | 0.0 | 0.00 | 0.00 | 0.00 | 93 | 1012.8 |
| 20260906103045 | 23 | 0 | 0.0 | 0.0 | 0.00 | 0.00 | 0.00 | 94 | 1012.7 |
| 20260906101543 | 23 | 0 | 0.0 | 0.0 | 0.00 | 0.00 | 0.00 | 94 | 1012.6 |
| 20260906100043 | 23 | 0 | 0.0 | 0.0 | 0.00 | 0.00 | 0.00 | 93 | 1012.4 |
| 20260906094558 | 23 | 0 | 0.0 | 0.0 | 0.00 | 0.00 | 0.00 | 93 | 1012.4 |
| 20260906093110 | 23 | 0 | 0.0 | 0.0 | 0.00 | 0.00 | 0.00 | 93 | 1012.4 |
| 20260906091544 | 23 | 0 | 0.0 | 0.0 | 0.00 | 0.00 | 0.00 | 93 | 1012.2 |
| 20260906090048 | 23 | 0 | 0.0 | 0.0 | 0.00 | 0.00 | 0.00 | 93 | 1012.1 |
| 20260906084545 | 23 | 0 | 0.0 | 0.0 | 0.00 | 0.00 | 0.00 | 93 | 1012.0 |
| 20260906083048 | 23 | 0 | 0.0 | 0.0 | 0.00 | 0.00 | 0.00 | 93 | 1012.0 |
| 20260906081545 | 23 | 0 | 0.0 | 0.0 | 0.00 | 0.00 | 0.00 | 92 | 1011.9 |
| 20260906080044 | 24 | 0 | 0.0 | 0.0 | 0.00 | 0.00 | 0.00 | 91 | 1011.9 |
| 20260906074542 | 24 | 0 | 0.0 | 0.0 | 0.00 | 0.00 | 0.00 | 91 | 1011.9 |
| 20260906073045 | 24 | 0 | 0.0 | 0.0 | 0.00 | 0.00 | 0.00 | 90 | 1012.0 |
| 20260906071544 | 24 | 0 | 0.0 | 0.0 | 0.00 | 0.00 | 0.00 | 90 | 1012.2 |
| 20260906070044 | 25 | 0 | 0.0 | 0.0 | 0.00 | 0.00 | 0.00 | 90 | 1012.3 |
| 20260906064546 | 25 | 0 | 0.0 | 0.0 | 0.00 | 0.00 | 0.00 | 90 | 1012.3 |
| 20260906063049 | 25 | 0 | 0.0 | 0.0 | 0.00 | 0.00 | 0.00 | 89 | 1012.4 |
| 20260906061548 | 25 | 0 | 0.0 | 0.0 | 0.00 | 0.00 | 0.00 | 89 | 1012.4 |
| 20260906060044 | 25 | 0 | 0.0 | 0.0 | 0.00 | 0.00 | 0.00 | 88 | 1012.3 |
| 20260906054549 | 25 | 0 | 0.0 | 0.0 | 0.00 | 0.00 | 0.00 | 88 | 1012.4 |
| 20260906053045 | 26 | 0 | 0.0 | 0.0 | 0.00 | 0.00 | 0.00 | 87 | 1012.5 |
| 20260906051555 | 26 | 0 | 0.0 | 0.0 | 0.00 | 0.00 | 0.00 | 86 | 1012.3 |
| 20260906050045 | 25 | 0 | 0.0 | 0.0 | 0.00 | 0.00 | 0.00 | 87 | 1012.3 |
| 20260906044553 | 26 | 0 | 0.0 | 0.0 | 0.00 | 0.00 | 0.00 | 87 | 1012.2 |
| 20260906043045 | 26 | 0 | 0.0 | 0.0 | 0.00 | 0.00 | 0.00 | 86 | 1012.1 |
| 20260906041544 | 26 | 0 | 0.0 | 0.0 | 0.00 | 0.00 | 0.00 | 85 | 1012.0 |
| 20260906040047 | 26 | 0 | 0.0 | 0.0 | 0.00 | 0.00 | 0.00 | 84 | 1012.1 |
| 20260906034545 | 27 | 0 | 0.0 | 0.0 | 0.00 | 0.00 | 0.00 | 83 | 1012.0 |
| 20260906033049 | 27 | 0 | 0.0 | 0.0 | 0.00 | 0.00 | 0.00 | 83 | 1012.1 |
| 20260906031543 | 27 | 0 | 0.0 | 0.0 | 0.00 | 0.00 | 0.00 | 82 | 1012.4 |
| 20260906030048 | 28 | 0 | 0.0 | 0.0 | 0.00 | 0.00 | 0.00 | 80 | 1012.5 |
| 20260906024551 | 28 | 0 | 0.0 | 0.0 | 0.00 | 0.00 | 0.00 | 78 | 1012.4 |
| 20260906023044 | 29 | 0 | 0.0 | 0.0 | 0.00 | 0.00 | 0.00 | 74 | 1012.3 |
| 20260906021544 | 30 | 0 | 0.0 | 0.0 | 0.00 | 0.00 | 0.00 | 72 | 1012.2 |
| 20260906020051 | 30 | 0 | 0.0 | 0.0 | 0.00 | 0.00 | 0.00 | 71 | 1011.8 |
| 20260906014615 | 31 | 0 | 0.0 | 0.0 | 0.00 | 0.00 | 0.00 | 65 | 1011.6 |
| 20260906013049 | 31 | 0 | 0.0 | 0.0 | 0.00 | 0.00 | 0.00 | 65 | 1011.6 |
| 20260906011545 | 32 | 0 | 0.0 | 3.2 | 0.00 | 0.00 | 0.00 | 64 | 1011.4 |
| 20260906010050 | 32 | 303 | 1.6 | 6.4 | 0.00 | 0.00 | 0.00 | 65 | 1011.0 |
| 20260906004541 | 32 | 0 | 0.0 | 11.3 | 0.00 | 0.00 | 0.00 | 64 | 1010.9 |
| 20260906003045 | 33 | 0 | 0.0 | 3.2 | 0.00 | 0.00 | 0.00 | 59 | 1010.8 |
| 20260906001544 | 35 | 0 | 0.0 | 0.0 | 0.00 | 0.00 | 0.00 | 59 | 1010.9 |
| 20260906000044 | 36 | 0 | 0.0 | 1.6 | 0.00 | 0.00 | 0.00 | 59 | 1011.0 |
| 20260905234542 | 36 | 0 | 0.0 | 3.2 | 0.00 | 0.00 | 0.00 | 55 | 1011.0 |
| 20260905233047 | 37 | 5 | 1.6 | 4.8 | 0.00 | 0.00 | 0.00 | 50 | 1010.9 |
| 20260905231547 | 37 | 0 | 0.0 | 4.8 | 0.00 | 0.00 | 0.00 | 49 | 1010.9 |
| 20260905230045 | 37 | 0 | 1.6 | 6.4 | 0.00 | 0.00 | 0.00 | 50 | 1010.9 |
| 20260905224545 | 37 | 51 | 3.2 | 6.4 | 0.00 | 0.00 | 0.00 | 49 | 1010.9 |
| 20260905223046 | 37 | 23 | 1.6 | 8.0 | 0.00 | 0.00 | 0.00 | 48 | 1010.9 |
| 20260905221605 | 37 | 76 | 1.6 | 6.4 | 0.00 | 0.00 | 0.00 | 48 | 1011.0 |
| 20260905220046 | 37 | 38 | 1.6 | 6.4 | 0.00 | 0.00 | 0.00 | 50 | 1011.0 |
| 20260905214542 | 37 | 26 | 3.2 | 8.0 | 0.00 | 0.00 | 0.00 | 50 | 1011.1 |
| 20260905213056 | 37 | 26 | 6.4 | 16.1 | 0.00 | 0.00 | 0.00 | 48 | 1011.2 |
| 20260905211546 | 37 | 26 | 3.2 | 14.5 | 0.00 | 0.00 | 0.00 | 50 | 1011.4 |
| 20260905210052 | 40 | 15 | 6.4 | 14.5 | 0.00 | 0.00 | 0.00 | 46 | 1011.5 |
| 20260905204547 | 40 | 149 | 1.6 | 8.0 | 0.00 | 0.00 | 0.00 | 41 | 1011.6 |
| 20260905203044 | 39 | 240 | 1.6 | 8.0 | 0.00 | 0.00 | 0.00 | 40 | 1012.0 |
| 20260905201601 | 38 | 97 | 1.6 | 14.5 | 0.00 | 0.00 | 0.00 | 45 | 1012.2 |
| 20260905200046 | 38 | 188 | 1.6 | 16.1 | 0.00 | 0.00 | 0.00 | 42 | 1012.3 |
| 20260905194544 | 38 | 0 | 1.6 | 11.3 | 0.00 | 0.00 | 0.00 | 41 | 1012.6 |
| 20260905193054 | 38 | 0 | 3.2 | 9.7 | 0.00 | 0.00 | 0.00 | 44 | 1012.9 |
| 20260905191544 | 38 | 49 | 4.8 | 12.9 | 0.00 | 0.00 | 0.00 | 44 | 1013.1 |
| 20260905190042 | 38 | 128 | 4.8 | 11.3 | 0.00 | 0.00 | 0.00 | 47 | 1013.3 |
| 20260905184554 | 37 | 266 | 0.0 | 11.3 | 0.00 | 0.00 | 0.00 | 45 | 1013.4 |
| 20260905183045 | 37 | 83 | 0.0 | 12.9 | 0.00 | 0.00 | 0.00 | 47 | 1013.6 |
| 20260905181559 | 37 | 140 | 4.8 | 9.7 | 0.00 | 0.00 | 0.00 | 48 | 1013.8 |
| 20260905180044 | 38 | 177 | 1.6 | 4.8 | 0.00 | 0.00 | 0.00 | 50 | 1013.7 |
| 20260905174551 | 37 | 0 | 1.6 | 6.4 | 0.00 | 0.00 | 0.00 | 50 | 1013.8 |
| 20260905173046 | 37 | 74 | 3.2 | 9.7 | 0.00 | 0.00 | 0.00 | 50 | 1014.0 |
| 20260905171544 | 37 | 59 | 1.6 | 8.0 | 0.00 | 0.00 | 0.00 | 51 | 1014.2 |
| 20260905170043 | 37 | 23 | 1.6 | 8.0 | 0.00 | 0.00 | 0.00 | 51 | 1014.4 |
| 20260905164545 | 37 | 15 | 0.0 | 9.7 | 0.00 | 0.00 | 0.00 | 48 | 1014.5 |
| 20260905163046 | 37 | 46 | 1.6 | 8.0 | 0.00 | 0.00 | 0.00 | 49 | 1014.8 |
| 20260905161558 | 36 | 0 | 0.0 | 4.8 | 0.00 | 0.00 | 0.00 | 54 | 1014.7 |
| 20260905160045 | 35 | 0 | 0.0 | 6.4 | 0.00 | 0.00 | 0.00 | 57 | 1014.9 |